sat.trackr.live / text

‹ back to catalog

STARLINK-32879

NORAD 62957 · 2025-029K

PAYLOAD ACTIVE UNKNOWN

§ Identity

Operator
Country
US
Launch date
2025-02-11
Launch site
AFWTR
Launch vehicle
Mass (kg)
RCS (m²)

Purposes: comms

External: N2YO · Heavens-Above · Gunter

§ Orbital elements

Epoch: 2026-09-21T16:24:34.156224Z

Period
94.01 min
Inclination
53.1590°
Eccentricity
0.0001139
Mean motion
15.31728975 rev/d
Perigee alt
469.9 km
Apogee alt
471.4 km
Semi-major
6,848.8 km
B*
3.7373e-4
RAAN
40.7758°
Arg perigee
87.1866°
Mean anomaly
272.9266°
Rev number
9,134

§ Raw data

STARLINK-328791 62957U 25029K   26264.68372866  .00011260  00000+0  37373-3 0  99982 62957  53.1590  40.7758 0001139  87.1866 272.9266 15.31728975 91344

JSON: /api/v1/satellites/62957 · /tle

For live sub-satellite position, see the globe view (requires WebGL).

§ Visibility from observer

Set your observer location to see the next 7 days of passes ≥ 10°. The values pass through the URL so the page stays shareable.

No JS? Fill the form by hand. The geolocation button needs JavaScript.